Time,TemperatureF,DewpointF,PressureIn,WindDirection,WindDirectionDegrees,WindSpeedMPH,WindSpeedGustMPH,Humidity,HourlyPrecipIn,Conditions,Clouds,dailyrainin,SoftwareType,DateUTC
2013-01-17 00:04:00,75.0,71.0,30.01,ESE,120,3.0,5.0,86,0.00,,,0.00,,2013-01-17 05:04:00,
2013-01-17 00:12:00,75.0,71.0,30.01,ESE,120,3.0,5.0,86,0.00,,,0.00,,2013-01-17 05:12:00,
2013-01-17 00:22:00,74.0,70.0,30.02,ESE,107,1.0,5.0,86,0.00,,,0.00,,2013-01-17 05:22:00,
2013-01-17 00:33:00,73.0,68.0,30.02,South,189,5.0,7.0,84,0.00,,,0.00,,2013-01-17 05:33:00,
2013-01-17 00:42:00,73.0,68.0,30.02,South,189,5.0,7.0,84,0.00,,,0.00,,2013-01-17 05:42:00,
2013-01-17 00:53:00,71.0,68.0,30.02,WSW,237,7.0,10.0,89,0.01,,,0.01,,2013-01-17 05:53:00,
2013-01-17 01:02:00,68.0,66.0,30.02,SW,214,3.0,7.0,92,0.14,,,0.14,,2013-01-17 06:02:00,
2013-01-17 01:12:00,68.0,66.0,30.02,SW,228,3.0,7.0,93,0.14,,,0.14,,2013-01-17 06:12:00,
2013-01-17 01:22:00,68.0,66.0,30.02,SW,228,3.0,7.0,93,0.14,,,0.14,,2013-01-17 06:22:00,
2013-01-17 01:32:00,68.0,66.0,30.02,West,270,0.0,2.0,93,0.18,,,0.18,,2013-01-17 06:32:00,
2013-01-17 01:42:00,68.0,66.0,30.02,West,270,0.0,2.0,93,0.18,,,0.18,,2013-01-17 06:42:00,
2013-01-17 01:53:00,67.0,66.0,30.03,SW,221,0.0,0.0,95,0.20,,,0.21,,2013-01-17 06:53:00,
2013-01-17 02:02:00,67.0,66.0,30.02,NE,35,0.0,0.0,96,0.08,,,0.22,,2013-01-17 07:02:00,
2013-01-17 02:12:00,67.0,66.0,30.02,NE,35,0.0,0.0,96,0.08,,,0.22,,2013-01-17 07:12:00,
2013-01-17 02:22:00,68.0,67.0,30.02,NNE,31,0.0,2.0,97,0.08,,,0.22,,2013-01-17 07:22:00,
2013-01-17 02:33:00,68.0,67.0,30.02,ESE,107,0.0,0.0,97,0.04,,,0.22,,2013-01-17 07:33:00,
2013-01-17 02:42:00,68.0,67.0,30.02,ESE,107,0.0,0.0,97,0.04,,,0.22,,2013-01-17 07:42:00,
2013-01-17 02:53:00,68.0,67.0,30.01,NE,36,0.0,3.0,98,0.02,,,0.23,,2013-01-17 07:53:00,
2013-01-17 03:02:00,68.0,67.0,30.01,SW,219,2.0,5.0,98,0.01,,,0.23,,2013-01-17 08:02:00,
2013-01-17 03:12:00,68.0,67.0,30.01,SW,219,2.0,5.0,98,0.01,,,0.23,,2013-01-17 08:12:00,
2013-01-17 03:22:00,67.0,66.0,30.01,ENE,77,2.0,3.0,98,0.01,,,0.23,,2013-01-17 08:22:00,
2013-01-17 03:32:00,67.0,66.0,30.01,ESE,112,0.0,0.0,98,0.01,,,0.23,,2013-01-17 08:32:00,
2013-01-17 03:43:00,67.0,66.0,30.01,ESE,112,0.0,0.0,98,0.01,,,0.23,,2013-01-17 08:43:00,
2013-01-17 03:53:00,68.0,67.0,30.01,SSE,152,0.0,3.0,98,0.02,,,0.25,,2013-01-17 08:53:00,
2013-01-17 04:02:00,68.0,67.0,30.01,ESE,103,1.0,2.0,98,0.02,,,0.25,,2013-01-17 09:02:00,
2013-01-17 04:12:00,68.0,67.0,30.01,ESE,103,1.0,2.0,98,0.02,,,0.25,,2013-01-17 09:12:00,
2013-01-17 04:22:00,68.0,67.0,30.01,South,180,0.0,0.0,98,0.02,,,0.25,,2013-01-17 09:22:00,
2013-01-17 04:32:00,68.0,67.0,30.01,SSE,149,0.0,3.0,98,0.03,,,0.26,,2013-01-17 09:32:00,
2013-01-17 04:42:00,68.0,67.0,30.01,SSE,149,0.0,3.0,98,0.03,,,0.26,,2013-01-17 09:42:00,
2013-01-17 04:53:00,68.0,67.0,30.01,South,189,0.0,3.0,98,0.01,,,0.26,,2013-01-17 09:53:00,
2013-01-17 05:02:00,68.0,67.0,30.00,SW,225,2.0,5.0,98,0.01,,,0.26,,2013-01-17 10:02:00,
2013-01-17 05:12:00,68.0,67.0,30.00,SW,225,2.0,5.0,98,0.01,,,0.26,,2013-01-17 10:12:00,
2013-01-17 05:22:00,68.0,67.0,30.00,SSE,160,1.0,3.0,98,0.03,,,0.28,,2013-01-17 10:22:00,
2013-01-17 05:32:00,68.0,67.0,30.01,SE,136,0.0,2.0,98,0.04,,,0.30,,2013-01-17 10:32:00,
2013-01-17 05:42:00,68.0,67.0,30.01,SE,136,0.0,2.0,98,0.04,,,0.30,,2013-01-17 10:42:00,
2013-01-17 05:53:00,69.0,68.0,30.01,SSW,210,2.0,3.0,98,0.10,,,0.36,,2013-01-17 10:53:00,
2013-01-17 06:02:00,69.0,69.0,30.01,East,90,3.0,3.0,99,0.30,,,0.56,,2013-01-17 11:02:00,
2013-01-17 06:12:00,69.0,69.0,30.01,East,90,3.0,3.0,99,0.30,,,0.56,,2013-01-17 11:12:00,
2013-01-17 06:22:00,70.0,70.0,30.01,SE,127,1.0,2.0,99,0.29,,,0.57,,2013-01-17 11:22:00,
2013-01-17 06:33:00,70.0,70.0,30.02,ESE,110,3.0,5.0,99,0.27,,,0.57,,2013-01-17 11:33:00,
2013-01-17 06:43:00,70.0,70.0,30.02,ESE,110,3.0,5.0,99,0.27,,,0.57,,2013-01-17 11:43:00,
2013-01-17 06:53:00,69.0,69.0,30.02,SSE,150,2.0,5.0,99,0.21,,,0.57,,2013-01-17 11:53:00,
2013-01-17 07:02:00,69.0,69.0,30.02,ESE,115,0.0,0.0,99,0.01,,,0.57,,2013-01-17 12:02:00,
2013-01-17 07:12:00,69.0,69.0,30.02,ESE,115,0.0,0.0,99,0.01,,,0.57,,2013-01-17 12:12:00,
2013-01-17 07:23:00,69.0,69.0,30.03,SSE,158,0.0,0.0,99,0.00,,,0.57,,2013-01-17 12:23:00,
2013-01-17 07:33:00,68.0,68.0,30.03,South,180,0.0,0.0,99,0.00,,,0.57,,2013-01-17 12:33:00,
2013-01-17 07:43:00,68.0,68.0,30.03,South,180,0.0,0.0,99,0.00,,,0.57,,2013-01-17 12:43:00,
2013-01-17 07:53:00,68.0,68.0,30.03,SSE,152,0.0,0.0,99,0.00,,,0.57,,2013-01-17 12:53:00,
2013-01-17 08:03:00,68.0,68.0,30.03,ENE,63,0.0,0.0,99,0.00,,,0.57,,2013-01-17 13:03:00,
2013-01-17 08:12:00,68.0,68.0,30.03,ENE,63,0.0,0.0,99,0.00,,,0.57,,2013-01-17 13:12:00,
2013-01-17 08:23:00,68.0,68.0,30.04,ENE,68,0.0,0.0,99,0.00,,,0.57,,2013-01-17 13:23:00,
2013-01-17 08:33:00,70.0,70.0,30.04,ENE,68,0.0,0.0,99,0.00,,,0.57,,2013-01-17 13:33:00,
2013-01-17 08:43:00,70.0,70.0,30.04,ENE,68,0.0,0.0,99,0.00,,,0.57,,2013-01-17 13:43:00,
2013-01-17 08:53:00,71.0,71.0,30.04,South,180,0.0,0.0,99,0.00,,,0.57,,2013-01-17 13:53:00,
2013-01-17 09:03:00,72.0,71.0,30.05,SE,131,0.0,0.0,98,0.00,,,0.57,,2013-01-17 14:03:00,
2013-01-17 09:12:00,72.0,71.0,30.05,SE,131,0.0,0.0,98,0.00,,,0.57,,2013-01-17 14:12:00,
2013-01-17 09:23:00,74.0,72.0,30.05,SSW,192,1.0,2.0,92,0.00,,,0.57,,2013-01-17 14:23:00,
2013-01-17 09:33:00,75.0,72.0,30.05,WSW,239,1.0,3.0,89,0.00,,,0.57,,2013-01-17 14:33:00,
2013-01-17 09:43:00,75.0,72.0,30.05,WSW,239,1.0,3.0,89,0.00,,,0.57,,2013-01-17 14:43:00,
2013-01-17 09:53:00,76.0,72.0,30.06,West,276,1.0,3.0,87,0.00,,,0.57,,2013-01-17 14:53:00,
2013-01-17 10:03:00,76.0,71.0,30.06,SSW,200,2.0,3.0,85,0.00,,,0.57,,2013-01-17 15:03:00,
2013-01-17 10:12:00,76.0,71.0,30.06,SSW,200,2.0,3.0,85,0.00,,,0.57,,2013-01-17 15:12:00,
2013-01-17 10:23:00,77.0,72.0,30.06,WSW,238,3.0,6.0,84,0.00,,,0.57,,2013-01-17 15:23:00,
2013-01-17 10:33:00,76.0,72.0,30.06,SSW,199,3.0,6.0,86,0.00,,,0.57,,2013-01-17 15:33:00,
2013-01-17 10:43:00,76.0,72.0,30.06,SSW,199,3.0,6.0,86,0.00,,,0.57,,2013-01-17 15:43:00,
2013-01-17 10:53:00,78.0,72.0,30.06,WSW,238,3.0,6.0,81,0.00,,,0.57,,2013-01-17 15:53:00,
2013-01-17 11:03:00,79.0,70.0,30.05,WSW,243,6.0,7.0,74,0.00,,,0.57,,2013-01-17 16:03:00,
2013-01-17 11:12:00,79.0,70.0,30.05,WSW,243,6.0,7.0,74,0.00,,,0.57,,2013-01-17 16:12:00,
2013-01-17 11:23:00,81.0,71.0,30.04,WSW,247,3.0,5.0,72,0.00,,,0.57,,2013-01-17 16:23:00,
2013-01-17 11:33:00,82.0,72.0,30.03,SW,219,4.0,6.0,71,0.00,,,0.57,,2013-01-17 16:33:00,
2013-01-17 11:43:00,82.0,72.0,30.03,SW,219,4.0,6.0,71,0.00,,,0.57,,2013-01-17 16:43:00,
2013-01-17 11:53:00,81.0,70.0,30.03,SW,225,3.0,5.0,70,0.00,,,0.57,,2013-01-17 16:53:00,
2013-01-17 12:03:00,81.0,71.0,30.02,SW,225,3.0,3.0,72,0.00,,,0.57,,2013-01-17 17:03:00,
2013-01-17 12:13:00,81.0,71.0,30.02,SW,225,3.0,3.0,72,0.00,,,0.57,,2013-01-17 17:13:00,
2013-01-17 12:23:00,79.0,71.0,30.01,South,170,5.0,7.0,76,0.00,,,0.57,,2013-01-17 17:23:00,
2013-01-17 12:33:00,79.0,72.0,30.00,SSW,196,4.0,9.0,79,0.00,,,0.57,,2013-01-17 17:33:00,
2013-01-17 12:43:00,79.0,72.0,30.00,SSW,196,4.0,9.0,79,0.00,,,0.57,,2013-01-17 17:43:00,
2013-01-17 12:53:00,78.0,71.0,29.99,SSE,159,5.0,7.0,79,0.00,,,0.57,,2013-01-17 17:53:00,
2013-01-17 13:04:00,77.0,71.0,29.99,South,183,5.0,8.0,81,0.00,,,0.57,,2013-01-17 18:04:00,
2013-01-17 13:12:00,77.0,71.0,29.99,South,183,5.0,8.0,81,0.00,,,0.57,,2013-01-17 18:12:00,
2013-01-17 13:23:00,76.0,71.0,29.98,SSE,157,5.0,9.0,85,0.00,,,0.57,,2013-01-17 18:23:00,
2013-01-17 13:33:00,76.0,71.0,29.97,SSW,193,4.0,6.0,85,0.00,,,0.57,,2013-01-17 18:33:00,
2013-01-17 13:43:00,76.0,71.0,29.97,SSW,193,4.0,6.0,85,0.00,,,0.57,,2013-01-17 18:43:00,
2013-01-17 13:53:00,77.0,71.0,29.95,South,170,1.0,3.0,83,0.00,,,0.57,,2013-01-17 18:53:00,
2013-01-17 14:03:00,77.0,71.0,29.96,SSE,155,6.0,7.0,83,0.00,,,0.57,,2013-01-17 19:03:00,
2013-01-17 14:13:00,77.0,71.0,29.96,SSE,155,6.0,7.0,83,0.00,,,0.57,,2013-01-17 19:13:00,
2013-01-17 14:23:00,76.0,71.0,29.95,SSE,149,5.0,12.0,85,0.00,,,0.57,,2013-01-17 19:23:00,
2013-01-17 14:33:00,76.0,71.0,29.95,SSW,202,5.0,7.0,84,0.00,,,0.57,,2013-01-17 19:33:00,
2013-01-17 14:43:00,76.0,71.0,29.95,SSW,202,5.0,7.0,84,0.00,,,0.57,,2013-01-17 19:43:00,
2013-01-17 14:53:00,77.0,71.0,29.95,South,191,4.0,9.0,81,0.00,,,0.57,,2013-01-17 19:53:00,
2013-01-17 15:03:00,77.0,70.0,29.95,SSW,205,5.0,8.0,78,0.00,,,0.57,,2013-01-17 20:03:00,
2013-01-17 15:12:00,77.0,70.0,29.95,SSW,205,5.0,8.0,78,0.00,,,0.57,,2013-01-17 20:12:00,
2013-01-17 15:23:00,77.0,69.0,29.95,SSE,167,5.0,7.0,77,0.00,,,0.57,,2013-01-17 20:23:00,
2013-01-17 15:33:00,79.0,71.0,29.94,SSW,202,4.0,7.0,77,0.00,,,0.57,,2013-01-17 20:33:00,
2013-01-17 15:43:00,79.0,71.0,29.94,SSW,202,4.0,7.0,77,0.00,,,0.57,,2013-01-17 20:43:00,
2013-01-17 15:54:00,77.0,70.0,29.95,SSE,158,3.0,5.0,80,0.00,,,0.57,,2013-01-17 20:54:00,
2013-01-17 16:03:00,76.0,68.0,29.95,SSW,207,4.0,6.0,76,0.00,,,0.57,,2013-01-17 21:03:00,
2013-01-17 16:13:00,76.0,68.0,29.95,SSW,207,4.0,6.0,76,0.00,,,0.57,,2013-01-17 21:13:00,
2013-01-17 16:23:00,77.0,69.0,29.95,SSW,207,3.0,6.0,76,0.00,,,0.57,,2013-01-17 21:23:00,
2013-01-17 16:34:00,78.0,68.0,29.95,South,188,5.0,8.0,72,0.00,,,0.57,,2013-01-17 21:34:00,
2013-01-17 16:43:00,78.0,68.0,29.95,South,188,5.0,8.0,72,0.00,,,0.57,,2013-01-17 21:43:00,
2013-01-17 16:53:00,78.0,68.0,29.94,West,281,4.0,6.0,71,0.00,,,0.57,,2013-01-17 21:53:00,
2013-01-17 17:03:00,78.0,69.0,29.95,SSW,202,2.0,5.0,73,0.00,,,0.57,,2013-01-17 22:03:00,
2013-01-17 17:12:00,78.0,69.0,29.95,SSW,202,2.0,5.0,73,0.00,,,0.57,,2013-01-17 22:12:00,
2013-01-17 17:23:00,77.0,68.0,29.95,South,180,3.0,6.0,75,0.00,,,0.57,,2013-01-17 22:23:00,
2013-01-17 17:33:00,76.0,68.0,29.96,SW,225,3.0,5.0,76,0.00,,,0.57,,2013-01-17 22:33:00,
2013-01-17 17:43:00,76.0,68.0,29.96,SW,225,3.0,5.0,76,0.00,,,0.57,,2013-01-17 22:43:00,
2013-01-17 17:53:00,76.0,68.0,29.96,SW,216,2.0,6.0,77,0.00,,,0.57,,2013-01-17 22:53:00,
2013-01-17 18:03:00,76.0,69.0,29.95,SW,225,2.0,6.0,78,0.00,,,0.57,,2013-01-17 23:03:00,
2013-01-17 18:12:00,76.0,69.0,29.95,SW,225,2.0,6.0,78,0.00,,,0.57,,2013-01-17 23:12:00,
2013-01-17 18:23:00,76.0,69.0,29.96,WSW,240,1.0,5.0,79,0.00,,,0.57,,2013-01-17 23:23:00,
2013-01-17 18:33:00,75.0,69.0,29.96,SSW,193,0.0,2.0,81,0.00,,,0.57,,2013-01-17 23:33:00,
2013-01-17 18:43:00,75.0,69.0,29.96,SSW,193,0.0,2.0,81,0.00,,,0.57,,2013-01-17 23:43:00,
2013-01-17 18:53:00,73.0,67.0,29.98,WNW,288,6.0,10.0,81,0.00,,,0.57,,2013-01-17 23:53:00,
2013-01-17 19:03:00,71.0,66.0,29.99,WNW,295,6.0,9.0,83,0.00,,,0.57,,2013-01-18 00:03:00,
2013-01-17 19:12:00,71.0,66.0,29.99,WNW,295,6.0,9.0,83,0.00,,,0.57,,2013-01-18 00:12:00,
2013-01-17 19:23:00,69.0,65.0,30.01,SSE,160,5.0,7.0,86,0.00,,,0.57,,2013-01-18 00:23:00,
2013-01-17 19:32:00,69.0,65.0,30.01,SSE,160,5.0,7.0,86,0.00,,,0.57,,2013-01-18 00:32:00,
2013-01-17 19:42:00,67.0,62.0,30.03,West,277,8.0,10.0,85,0.00,,,0.57,,2013-01-18 00:42:00,
2013-01-17 19:53:00,66.0,61.0,30.03,ENE,76,6.0,7.0,84,0.00,,,0.57,,2013-01-18 00:53:00,
2013-01-17 20:03:00,66.0,61.0,30.03,WNW,298,4.0,6.0,84,0.00,,,0.57,,2013-01-18 01:03:00,
2013-01-17 20:13:00,66.0,61.0,30.03,WNW,298,4.0,6.0,84,0.00,,,0.57,,2013-01-18 01:13:00,
2013-01-17 20:23:00,65.0,60.0,30.04,South,191,7.0,12.0,83,0.00,,,0.57,,2013-01-18 01:23:00,
2013-01-17 20:33:00,64.0,59.0,30.04,NNW,329,6.0,9.0,83,0.00,,,0.57,,2013-01-18 01:33:00,
2013-01-17 20:43:00,64.0,59.0,30.04,NNW,329,6.0,9.0,83,0.00,,,0.57,,2013-01-18 01:43:00,
2013-01-17 20:53:00,63.0,58.0,30.04,WSW,258,6.0,10.0,83,0.00,,,0.57,,2013-01-18 01:53:00,
2013-01-17 21:03:00,63.0,58.0,30.05,East,90,5.0,12.0,83,0.00,,,0.57,,2013-01-18 02:03:00,
2013-01-17 21:12:00,63.0,58.0,30.05,East,90,5.0,12.0,83,0.00,,,0.57,,2013-01-18 02:12:00,
2013-01-17 21:22:00,62.0,57.0,30.05,WNW,284,3.0,7.0,84,0.00,,,0.57,,2013-01-18 02:22:00,
2013-01-17 21:33:00,62.0,57.0,30.05,SW,214,6.0,10.0,84,0.00,,,0.57,,2013-01-18 02:33:00,
2013-01-17 21:42:00,62.0,57.0,30.05,SW,214,6.0,10.0,84,0.00,,,0.57,,2013-01-18 02:42:00,
2013-01-17 21:53:00,62.0,57.0,30.05,SW,215,6.0,9.0,84,0.00,,,0.57,,2013-01-18 02:53:00,
2013-01-17 22:02:00,62.0,57.0,30.05,ENE,78,5.0,7.0,84,0.00,,,0.57,,2013-01-18 03:02:00,
2013-01-17 22:12:00,62.0,57.0,30.05,ENE,78,5.0,7.0,84,0.00,,,0.57,,2013-01-18 03:12:00,
2013-01-17 22:23:00,62.0,57.0,30.05,SW,221,4.0,7.0,84,0.00,,,0.57,,2013-01-18 03:23:00,
2013-01-17 22:33:00,62.0,57.0,30.05,NW,321,3.0,6.0,83,0.00,,,0.57,,2013-01-18 03:33:00,
2013-01-17 22:42:00,62.0,57.0,30.05,NW,321,3.0,6.0,83,0.00,,,0.57,,2013-01-18 03:42:00,
2013-01-17 22:53:00,62.0,56.0,30.06,WSW,255,5.0,8.0,81,0.00,,,0.57,,2013-01-18 03:53:00,
2013-01-17 23:02:00,61.0,55.0,30.06,SW,216,3.0,6.0,81,0.00,,,0.57,,2013-01-18 04:02:00,
2013-01-17 23:12:00,61.0,55.0,30.06,SW,216,3.0,6.0,81,0.00,,,0.57,,2013-01-18 04:12:00,
2013-01-17 23:22:00,61.0,55.0,30.06,West,264,3.0,6.0,81,0.00,,,0.57,,2013-01-18 04:22:00,
2013-01-17 23:33:00,61.0,54.0,30.06,North,351,5.0,9.0,79,0.00,,,0.57,,2013-01-18 04:33:00,
2013-01-17 23:42:00,61.0,54.0,30.06,North,351,5.0,9.0,79,0.00,,,0.57,,2013-01-18 04:42:00,
2013-01-17 23:53:00,61.0,54.0,30.06,East,100,4.0,7.0,78,0.00,,,0.57,,2013-01-18 04:53:00,